Location: Tucson
(32.2217°N, 110.9265°W)
Time: 08:17:31
(UTC-07:00)

Tiros 1 - Pass Details

Date: 28 October 2021
Orbit: 629 x 664 km, 48.4° (Epoch: 27 November)

Event Time Altitude Azimuth Distance (km) Brightness Sun altitude
Rises 17:01:49 0° 285° (WNW) 2,938 11.6 6.2°
Reaches altitude 10° 17:05:59 10° 249° (WSW) 2,014 12.9 5.4°
Maximum altitude 17:07:11 11° 234° (SW) 1,951 11.4 5.2°
Drops below altitude 10° 17:08:22 10° 219° (SW) 2,006 10.8 4.9°
Sets 17:12:31 0° 182° (S) 2,901 10.8 4.1°
